Powrót do katalogu

OPS 7684

AktywnyPogodaPO
NORAD 3605·PAYLOAD·🇺🇸 United States

Wystrzelony Dec 12, 1968 z Vandenberg Space Force Base

Loading…

Następne Przeloty (najbliższe 24 godziny)

TLE

ŚwieżeSource: Space-Track

Epoka: Sep 14, 2026, 09:17 UTC

1 03605U 68112B   26257.38736219  .00000082  00000-0  43009-3 0  9992
2 03605  80.3615  41.4819 0055903 296.2431  91.3143 12.60758816655242

Śledź OPS 7684 w czasie rzeczywistym z AllMySat

Download on the App Store